Total_Precipitation_Accumulation
1.40 1.42 1.39 1.41 1.50 1.48 1.41 1.41 1.46 1.45 1.44 1.52 1.64 1.73 1.78 1.81 1.81 1.81 1.79 1.78 1.78 1.69 1.61 1.57 1.54 1.52 1.55 1.51 1.51 1.57 1.64 1.71 1.66 1.21 0.98 0.98 1.08 1.11 1.13 1.06 0.99 1.00 1.02
1.28 1.37 1.31 1.29 1.43 1.47 1.38 1.32 1.33 1.34 1.25 1.27 1.34 1.41 1.46 1.48 1.50 1.54 1.56 1.58 1.59 1.60 1.53 1.49 1.45 1.43 1.45 1.45 1.50 1.52 1.55 1.58 1.61 1.41 1.12 1.01 1.02 1.04 1.05 1.05 1.00 0.95 0.90
1.19 1.24 1.21 1.18 1.25 1.31 1.34 1.32 1.29 1.32 1.27 1.19 1.15 1.19 1.22 1.24 1.25 1.27 1.29 1.32 1.34 1.36 1.40 1.41 1.38 1.41 1.45 1.42 1.42 1.40 1.37 1.37 1.42 1.41 1.21 1.01 0.95 0.95 1.01 1.01 0.97 0.93 0.86
1.07 1.08 1.06 1.07 1.08 1.09 1.13 1.17 1.16 1.16 1.20 1.22 1.12 1.04 1.05 1.09 1.13 1.16 1.17 1.18 1.21 1.25 1.29 1.33 1.34 1.35 1.34 1.34 1.39 1.37 1.33 1.31 1.30 1.33 1.26 1.13 1.05 1.01 1.07 1.10 1.08 1.00 0.95
1.02 1.04 1.04 1.00 0.97 0.96 0.99 0.97 0.98 1.01 1.07 1.14 1.13 1.06 1.00 1.01 1.05 1.09 1.11 1.13 1.14 1.17 1.20 1.22 1.27 1.38 1.42 1.37 1.34 1.33 1.35 1.41 1.41 1.43 1.35 1.20 1.06 1.01 1.01 0.98 1.02 1.03 1.04
0.92 0.98 0.99 0.97 0.93 0.91 0.90 0.89 0.87 0.92 0.99 1.08 1.12 1.12 1.09 1.10 1.29 1.27 1.17 1.15 1.16 1.15 1.13 1.10 1.11 1.19 1.22 1.27 1.27 1.25 1.32 1.43 1.54 1.54 1.38 1.14 0.94 0.85 0.84 0.91 1.04 1.13 1.10
0.74 0.82 0.86 0.87 0.89 0.88 0.87 0.91 0.96 0.99 1.03 1.12 1.19 1.22 1.21 1.25 1.39 1.30 1.26 1.13 1.11 1.12 1.09 1.04 1.00 0.98 1.03 0.95 1.04 1.11 1.13 1.24 1.29 1.20 1.11 0.94 0.84 0.82 0.94 1.06 1.05 1.05 0.94
0.76 0.79 0.79 0.83 0.87 0.91 0.97 1.05 1.14 1.20 1.22 1.29 1.36 1.39 1.38 1.37 1.38 1.29 1.29 1.10 1.01 0.98 0.93 0.86 0.83 0.79 0.80 0.86 0.90 0.98 0.93 0.90 0.91 0.87 0.84 0.80 0.78 0.83 0.99 1.15 1.18 1.19 1.04
0.77 0.84 0.86 0.93 1.01 1.06 1.15 1.22 1.25 1.34 1.34 1.31 1.31 1.31 1.29 1.25 1.25 1.18 1.13 0.99 0.93 0.87 0.79 0.74 0.73 0.69 0.80 0.93 0.92 0.94 0.82 0.74 0.81 0.89 0.95 0.95 1.01 1.02 1.03 1.21 1.37 1.47 1.33
0.88 0.97 0.98 1.01 1.07 1.10 1.12 1.12 1.10 1.12 1.11 1.06 1.03 1.01 0.99 0.95 0.99 0.97 0.97 0.89 0.85 0.78 0.72 0.70 0.78 0.75 0.86 0.94 0.86 0.85 0.81 0.70 0.70 0.78 0.84 0.88 0.87 0.93 1.03 1.01 1.18 1.49 1.39
1.01 1.06 1.04 0.99 1.00 0.97 0.92 0.87 0.82 0.79 0.76 0.74 0.73 0.72 0.70 0.69 0.74 0.77 0.84 0.83 0.86 0.83 0.75 0.70 0.70 0.84 0.91 0.94 0.87 0.76 0.80 0.84 0.82 0.85 0.84 0.83 0.83 0.86 0.89 0.88 0.96 1.32 1.56
0.92 0.90 0.84 0.75 0.71 0.67 0.66 0.66 0.65 0.63 0.64 0.64 0.62 0.61 0.57 0.55 0.60 0.65 0.71 0.80 0.86 0.84 0.79 0.71 0.72 0.89 0.91 0.88 0.85 0.85 0.93 0.92 0.84 0.90 0.94 0.90 0.83 0.79 0.77 0.80 0.84 0.92 1.07
0.64 0.64 0.62 0.58 0.55 0.56 0.56 0.59 0.61 0.61 0.62 0.61 0.59 0.61 0.60 0.55 0.58 0.66 0.70 0.78 0.85 0.82 0.79 0.82 0.85 0.88 0.86 0.81 0.84 0.92 0.90 0.83 0.84 0.90 0.89 0.83 0.78 0.77 0.81 0.88 0.93 0.95 0.96
0.52 0.55 0.56 0.57 0.53 0.53 0.55 0.56 0.61 0.65 0.66 0.64 0.62 0.62 0.61 0.58 0.58 0.63 0.69 0.74 0.81 0.83 0.83 0.82 0.81 0.80 0.83 0.82 0.81 0.81 0.80 0.83 0.92 0.94 0.89 0.85 0.85 0.90 0.94 0.96 1.01 1.03 1.11
0.52 0.56 0.59 0.62 0.59 0.57 0.57 0.59 0.64 0.68 0.76 0.80 0.76 0.71 0.71 0.69 0.66 0.78 0.83 0.82 0.84 0.87 0.92 0.86 0.80 0.77 0.80 0.79 0.76 0.75 0.78 0.85 0.93 0.93 0.98 1.01 1.00 0.99 0.97 0.95 1.06 1.12 1.18
0.53 0.55 0.58 0.62 0.63 0.62 0.59 0.58 0.64 0.68 0.72 0.73 0.73 0.73 0.70 0.72 0.75 0.81 0.83 0.85 0.90 0.98 1.02 0.90 0.80 0.76 0.77 0.75 0.76 0.78 0.79 0.84 0.89 0.98 1.05 1.10 1.13 1.11 1.06 0.99 1.04 1.15 1.16
0.57 0.58 0.59 0.62 0.65 0.66 0.63 0.61 0.63 0.67 0.72 0.71 0.70 0.70 0.70 0.74 0.77 0.78 0.82 0.86 0.93 1.02 0.98 0.83 0.73 0.70 0.71 0.74 0.78 0.82 0.83 0.82 0.92 1.06 1.15 1.20 1.24 1.22 1.18 1.14 1.09 1.10 1.09
0.52 0.57 0.60 0.60 0.65 0.69 0.70 0.68 0.65 0.65 0.66 0.65 0.67 0.73 0.74 0.75 0.77 0.79 0.84 0.89 0.92 0.90 0.83 0.78 0.76 0.74 0.77 0.81 0.84 0.87 0.91 0.93 0.99 1.05 1.12 1.21 1.31 1.36 1.30 1.20 1.15 1.14 1.15
0.51 0.56 0.59 0.61 0.64 0.70 0.74 0.76 0.73 0.68 0.67 0.65 0.63 0.68 0.77 0.81 0.83 0.83 0.83 0.80 0.78 0.76 0.73 0.75 0.78 0.83 0.87 0.90 0.91 0.94 0.99 1.04 1.05 1.10 1.13 1.18 1.30 1.42 1.33 1.19 1.20 1.20 1.24
0.51 0.62 0.67 0.67 0.68 0.70 0.71 0.74 0.75 0.72 0.70 0.67 0.66 0.71 0.79 0.86 0.81 0.77 0.76 0.74 0.72 0.70 0.71 0.78 0.83 0.91 0.98 1.02 1.04 1.05 1.06 1.04 1.07 1.14 1.15 1.17 1.23 1.35 1.37 1.27 1.26 1.28 1.22
0.50 0.57 0.65 0.63 0.63 0.67 0.70 0.73 0.76 0.76 0.72 0.68 0.68 0.75 0.92 0.95 0.85 0.76 0.76 0.79 0.82 0.80 0.80 0.84 0.88 0.93 1.01 1.07 1.09 1.09 1.07 1.02 1.03 1.15 1.21 1.22 1.26 1.30 1.26 1.31 1.31 1.30 1.31
0.48 0.51 0.55 0.58 0.60 0.67 0.74 0.75 0.74 0.74 0.72 0.68 0.67 0.71 0.83 0.81 0.75 0.73 0.74 0.78 0.81 0.84 0.88 0.96 0.96 0.92 1.01 1.15 1.23 1.25 1.13 1.00 0.97 1.11 1.21 1.22 1.25 1.29 1.33 1.38 1.36 1.35 1.32
0.48 0.50 0.51 0.53 0.58 0.65 0.69 0.66 0.68 0.70 0.71 0.69 0.68 0.69 0.71 0.71 0.68 0.68 0.70 0.73 0.77 0.80 0.82 0.90 0.95 0.90 0.89 1.03 1.19 1.41 1.44 1.21 1.09 1.25 1.51 1.50 1.41 1.40 1.42 1.39 1.29 1.29 1.21
0.47 0.50 0.52 0.54 0.57 0.61 0.63 0.63 0.63 0.64 0.65 0.67 0.67 0.68 0.69 0.69 0.69 0.68 0.70 0.72 0.75 0.76 0.78 0.85 0.89 0.89 0.89 0.99 1.07 1.16 1.27 1.39 1.66 1.84 1.94 1.97 1.69 1.43 1.37 1.31 1.21 1.18 1.17
0.47 0.50 0.54 0.57 0.60 0.61 0.61 0.60 0.59 0.59 0.61 0.62 0.63 0.64 0.65 0.66 0.65 0.65 0.67 0.69 0.71 0.71 0.72 0.76 0.83 0.87 0.87 0.90 0.96 1.01 1.10 1.33 1.68 1.93 1.93 1.82 1.58 1.37 1.33 1.28 1.19 1.16 1.14
0.50 0.52 0.55 0.59 0.61 0.62 0.62 0.60 0.57 0.57 0.60 0.59 0.59 0.60 0.61 0.63 0.61 0.61 0.62 0.64 0.66 0.66 0.65 0.67 0.72 0.80 0.83 0.83 0.80 0.88 1.06 1.19 1.24 1.32 1.61 1.74 1.57 1.34 1.30 1.35 1.23 1.18 1.15